Location: Newark
(58.8333°N, 23.5833°E)
Time: 07:31:47
(UTC+00:00)

S-56A Canister/Altair - Pass Details

Date: 22 November 2019
Orbit: 633 x 2500 km, 38.9° (Epoch: 12 December)

Event Time Altitude Azimuth Distance (km) Brightness Sun altitude
Rises 17:56:22 0° 250° (WSW) 4,609 12.3 -30.6°
Reaches altitude 10° 18:02:04 10° 224° (SW) 3,140 11.0 -31.3°
Maximum altitude 18:04:43 12° 203° (SSW) 2,758 10.4 -31.7°
Enters shadow 18:05:59 12° 191° (SSW) 2,696 10.3 -31.8°
